Location: Brusselsch Zeekanaal
(50.8667°N, 4.3667°E)
Time: 02:29:45
(UTC+00:00)

CZ-2C R/B - Pass Details

Date: 08 November 2025
Orbit: 664 x 773 km, 98.4° (Epoch: 13 December)

Event Time Altitude Azimuth Distance (km) Brightness Sun altitude
Rises 04:12:48 0° 13° (NNE) 3,172 5.9 -24.4°
Reaches altitude 10° 04:15:04 10° 12° (NNE) 2,262 5.1 -24.0°
Maximum altitude 04:20:02 74° 288° (WNW) 791 2.3 -23.2°
Enters shadow 04:21:40 43° 215° (SW) 1,055 2.9 -23.0°
